Location: Bullfrog
(37.5121°N, 110.7330°W)
Time: 16:15:25
(UTC-06:00)

Tiangong - Pass Details

Date: 27 September 2021
Orbit: 382 x 384 km, 41.5° (Epoch: 20 October)

Event Time Altitude Azimuth Distance (km) Brightness Sun altitude
Exits shadow 06:13:06 25° 252° (WSW) 802 2.1 -13.1°
Maximum altitude 06:14:45 86° 336° (NNW) 384 1.0 -12.8°
Drops below altitude 10° 06:17:54 10° 69° (ENE) 1,392 5.3 -12.2°
Sets 06:19:58 0° 70° (ENE) 2,246 6.7 -11.8°
